FENGYUN 1C DEB

Satellite information

Favourite Embed

Satellite Type and Status

DEBRISIN ORBIT

Key statistics

Satellite FENGYUN 1C DEB at a glance.

Uptime

9656

Days in orbit

Revolutions

≈ 14.3

Per day

Orbit

SSO

Sun Synchronous Orbit

Inclination

98.5

Latest

Satellite identification and parameters

Extended collection of information and parameters for FENGYUN 1C DEB.

Object identification

Identified? True

Debris? True

Object name: FENGYUN 1C DEB

International designator: 1999-025CAH

Object number (NORAD): 31627

Object ID (CCSDS): 31627

Country: PEOPLES REPUBLIC OF CHINA (PRC)

Current information (Y/N): Y

RCS size: SMALL

Orbital parameters

Period: 100.354 minutes

Inclination: 98.5377 deg

SMA: 7153.477 km

Apoapsis: 811.578 km

Periapsis: 739.105 km

RAAN: 325.0185 deg

Eccentricy: 0.00506558

Argument of periapsis: 4.7568 deg

Mean anomaly: 355.4088 deg

Mean motion: 14.34917819 rev/day

Mean motion (dot): 0.00007144 rev/day2

B* drag term: 0.0024894855 1/REarth

Two-line elements (TLE)

Creation date: Oct. 3, 2025, 6:13 p.m.

Reference frame: TEME

Reference center: EARTH

Epoch: Oct. 3, 2025, 8:26 a.m. UTC

TLE line 0: 0 FENGYUN 1C DEB

TLE line 1: 1 31627U 99025CAH 25276.35201334 .00007144 00000-0 24895-2 0 9993

TLE line 2: 2 31627 98.5377 325.0185 0050656 4.7568 355.4088 14.34917819637574

Live tracking on map

Real-time ground track for satellite FENGYUN 1C DEB.

In-orbit conjunctions

A list of the most updated potential collisions computed for object FENGYUN 1C DEB.

Target Orbit TCA Probability of collision Miss distance Type
COSMOS 1190 LEO 2025-01-26 08:56:04 0.0008574326 126.0 (m) PAYLOAD
THOR AGENA D R/B SSO 2024-09-26 15:22:55 0.0002152727 146.0 (m) ROCKET BODY

Associated space launch

Chinese polar orbiting meteorological satellite

FENGYUN 1C DEB was lifted into orbit during the mission ‘Long March 4B | Feng Yun 1C’, on board a Long March 4B space rocket.

The launch took place on May 10, 1999, 1:33 a.m. from Launch Complex 7.

For more information about the launch, click the button.

Launch to space Long March 4B | Feng Yun 1C
Long March 4B | Feng Yun 1C

Agency: N/A

Status: Launch Successful

Launch date: May 10, 1999, 1:33 a.m. UTC

Rocket: Long March 4B

Launch pad: Launch Complex 7

Location: Taiyuan Satellite Launch Center, People's Republic of China

...

Latest news about this satellite

There are no fresh news available about this satellite. Check back as we update our databases every day.


Newsletter sign-up

Weekly statistics, charts and insights to help you stay on top of the space industry.